KC7NGC-B Weather Reports


Display with metric or nautical units.
time (UTC)temp
F
wind
direction
speed
MPH
gust
MPH
rain 1hr
in
rain 24hr
in
rain mn
in
humidity
%
barometer
mb
20260905170635 62 357 8.0 10.0 0.00 0.00 0.00 1 1019.7
20260905165631 62 3 5.0 6.0 0.00 0.00 0.00 1 1019.7
20260905164627 63 18 5.0 6.0 0.00 0.00 0.00 1 1019.7
20260905163623 62 360 7.0 9.0 0.00 0.00 0.00 1 1019.3
20260905162620 62 360 8.0 10.0 0.00 0.00 0.00 1 1019.2
20260905161636 61 352 7.0 10.0 0.00 0.00 0.00 1 1019.1
20260905160632 60 327 8.0 10.0 0.00 0.00 0.00 1 1019.0
20260905155628 60 314 7.0 9.0 0.00 0.00 0.00 1 1019.2
20260905154624 60 335 7.0 9.0 0.00 0.00 0.00 1 1019.2
20260905153620 60 326 6.0 7.0 0.00 0.00 0.00 1 1019.2
20260905152617 59 343 5.0 6.0 0.00 0.00 0.00 1 1019.4
20260905151653 59 319 4.0 5.0 0.00 0.00 0.00 1 1019.5
20260905150649 58 263 2.0 2.0 0.00 0.00 0.00 1 1019.5
20260905145625 58 347 4.0 5.0 0.00 0.00 0.00 1 1019.5
20260905144621 57 317 2.0 4.0 0.00 0.00 0.00 1 1019.4
20260905143618 57 348 2.0 3.0 0.00 0.00 0.00 1 1019.4
20260905142634 57 261 2.0 4.0 0.00 0.00 0.00 1 1019.5
20260905141630 56 328 2.0 3.0 0.00 0.00 0.00 1 1019.2
20260905140626 55 340 1.0 3.0 0.00 0.00 0.00 1 1019.2
20260905135622 55 0.0 2.0 0.00 0.00 0.00 1 1019.1
20260905134618 55 345 1.0 3.0 0.00 0.00 0.00 1 1019.0
20260905133735 56 93 0.0 2.0 0.00 0.00 0.00 1 1018.9
20260905132651 56 73 2.0 3.0 0.00 0.00 0.00 1 1018.8
20260905131627 56 0.0 2.0 0.00 0.00 0.00 1 1018.7
20260905130643 56 0.0 2.0 0.00 0.00 0.00 1 1018.6
20260905125619 56 205 3.0 5.0 0.00 0.00 0.00 1 1018.6
20260905124618 55 222 2.0 2.0 0.00 0.00 0.00 1 1018.4
20260905123633 55 266 2.0 3.0 0.00 0.00 0.00 1 1018.1
20260905122628 56 16 2.0 2.0 0.00 0.00 0.00 1 1018.4
20260905121624 55 199 1.0 2.0 0.00 0.00 0.00 1 1018.3
20260905120620 56 316 3.0 4.0 0.00 0.00 0.00 1 1018.1
20260905115616 55 336 3.0 4.0 0.00 0.00 0.00 1 1018.0
20260905114652 56 316 3.0 4.0 0.00 0.00 0.00 1 1017.8
20260905113648 56 338 5.0 6.0 0.00 0.00 0.00 1 1017.8
20260905112624 57 345 3.0 5.0 0.00 0.00 0.00 1 1018.0
20260905111621 57 334 4.0 6.0 0.00 0.00 0.00 1 1017.8
20260905110617 58 338 4.0 6.0 0.00 0.00 0.00 1 1017.7
20260905105633 58 327 6.0 7.0 0.00 0.00 0.00 1 1017.8
20260905104629 58 333 4.0 6.0 0.00 0.00 0.00 1 1017.8
20260905103625 56 342 0.0 1.0 0.00 0.00 0.00 1 1017.9
20260905102621 56 216 2.0 2.0 0.00 0.00 0.00 1 1018.0
20260905101617 56 303 3.0 4.0 0.00 0.00 0.00 1 1017.8
20260905100633 56 325 3.0 4.0 0.00 0.00 0.00 1 1017.7
20260905095630 56 327 4.0 5.0 0.00 0.00 0.00 1 1017.9
20260905094626 56 338 4.0 5.0 0.00 0.00 0.00 1 1017.8
20260905093622 56 330 3.0 4.0 0.00 0.00 0.00 1 1017.8
20260905092618 57 328 4.0 5.0 0.00 0.00 0.00 1 1017.8
20260905091654 57 342 5.0 7.0 0.00 0.00 0.00 1 1017.8
20260905090631 57 346 3.0 4.0 0.00 0.00 0.00 1 1017.6
20260905085626 57 333 3.0 4.0 0.00 0.00 0.00 1 1017.7
20260905084622 57 0 1.0 2.0 0.00 0.00 0.00 1 1017.4
20260905083639 57 0.0 0.0 0.00 0.00 0.00 1 1017.6
20260905082715 57 301 2.0 3.0 0.00 0.00 0.00 1 1017.4
20260905081651 57 331 3.0 5.0 0.00 0.00 0.00 1 1017.2
20260905080647 58 346 3.0 4.0 0.00 0.00 0.00 1 1017.2
20260905075623 57 332 5.0 7.0 0.00 0.00 0.00 1 1017.2
20260905074619 57 309 3.0 4.0 0.00 0.00 0.00 1 1017.2
20260905073655 56 344 2.0 3.0 0.00 0.00 0.00 1 1016.9
20260905072631 56 345 4.0 6.0 0.00 0.00 0.00 1 1017.0
20260905071628 57 341 3.0 4.0 0.00 0.00 0.00 1 1016.9
20260905070624 57 327 5.0 6.0 0.00 0.00 0.00 1 1017.1
20260905065620 57 343 5.0 6.0 0.00 0.00 0.00 1 1017.0
20260905064718 57 326 4.0 5.0 0.00 0.00 0.00 1 1016.8
20260905063633 57 343 5.0 6.0 0.00 0.00 0.00 1 1016.4
20260905062629 57 329 6.0 7.0 0.00 0.00 0.00 1 1016.6
20260905061625 57 332 7.0 9.0 0.00 0.00 0.00 1 1016.4
20260905060621 57 328 4.0 7.0 0.00 0.00 0.00 1 1016.7
20260905055617 57 310 3.0 4.0 0.00 0.00 0.00 1 1016.4
20260905054634 57 322 4.0 5.0 0.00 0.00 0.00 1 1016.3
20260905053630 58 336 4.0 6.0 0.00 0.00 0.00 1 1016.5
20260905052646 59 331 4.0 6.0 0.00 0.00 0.00 1 1016.3
20260905051642 59 338 5.0 5.0 0.00 0.00 0.00 1 1016.4
20260905050618 59 329 4.0 5.0 0.00 0.00 0.00 1 1016.5
20260905045634 59 308 4.0 5.0 0.00 0.00 0.00 1 1016.5
20260905044631 60 338 9.0 10.0 0.00 0.00 0.00 1 1016.3
20260905043626 60 336 6.0 8.0 0.00 0.00 0.00 1 1016.1
20260905042622 61 339 5.0 6.0 0.00 0.00 0.00 1 1016.1
20260905041618 61 352 5.0 6.0 0.00 0.00 0.00 1 1016.2
20260905040635 62 356 4.0 4.0 0.00 0.00 0.00 1 1016.3
20260905035631 62 329 6.0 7.0 0.00 0.00 0.00 1 1016.2
20260905034627 64 339 6.0 9.0 0.00 0.00 0.00 1 1016.2
20260905033623 66 336 3.0 4.0 0.00 0.00 0.00 1 1016.0
20260905032619 66 315 2.0 3.0 0.00 0.00 0.00 1 1016.0
20260905031636 67 296 3.0 4.0 0.00 0.00 0.00 1 1015.9
20260905030631 66 294 3.0 3.0 0.00 0.00 0.00 1 1015.9
20260905025628 67 328 2.0 2.0 0.00 0.00 0.00 1 1015.6
20260905024644 66 324 2.0 3.0 0.00 0.00 0.00 1 1015.8
20260905023620 66 291 1.0 2.0 0.00 0.00 0.00 1 1015.4
20260905022636 67 292 1.0 2.0 0.00 0.00 0.00 1 1015.6
20260905021632 68 350 2.0 2.0 0.00 0.00 0.00 1 1015.7
20260905020628 69 0 1.0 2.0 0.00 0.00 0.00 1 1015.6
20260905015624 69 34 2.0 3.0 0.00 0.00 0.00 1 1015.6
20260905014621 70 39 2.0 4.0 0.00 0.00 0.00 1 1015.5
20260905013617 71 66 3.0 4.0 0.00 0.00 0.00 1 1015.4
20260905012633 71 57 1.0 2.0 0.00 0.00 0.00 1 1015.3
20260905011629 71 23 2.0 3.0 0.00 0.00 0.00 1 1015.3
20260905010625 71 51 4.0 5.0 0.00 0.00 0.00 1 1015.2
20260905005621 71 48 4.0 5.0 0.00 0.00 0.00 1 1015.2
20260905004617 71 50 5.0 6.0 0.00 0.00 0.00 1 1015.2
20260905003634 72 26 4.0 5.0 0.00 0.00 0.00 1 1015.2
20260905002630 71 49 0.0 2.0 0.00 0.00 0.00 1 1015.1
20260905001626 71 42 3.0 5.0 0.00 0.00 0.00 1 1015.0
20260905000622 71 64 2.0 4.0 0.00 0.00 0.00 1 1015.1
20260904235618 72 86 1.0 3.0 0.00 0.00 0.00 1 1015.1
20260904234634 73 125 2.0 6.0 0.00 0.00 0.00 1 1015.1
20260904233631 72 90 4.0 5.0 0.00 0.00 0.00 1 1015.0
20260904232631 73 88 2.0 6.0 0.00 0.00 0.00 1 1015.1
20260904231643 73 87 5.0 6.0 0.00 0.00 0.00 1 1015.2
20260904230620 73 50 4.0 9.0 0.00 0.00 0.00 1 1015.2
20260904225635 72 54 7.0 9.0 0.00 0.00 0.00 1 1015.2
20260904224631 72 34 3.0 4.0 0.00 0.00 0.00 1 1015.2
20260904223628 72 100 2.0 5.0 0.00 0.00 0.00 1 1015.2
20260904222623 71 40 5.0 8.0 0.00 0.00 0.00 1 1015.3
20260904221620 71 78 3.0 5.0 0.00 0.00 0.00 1 1015.3
20260904220656 71 58 4.0 5.0 0.00 0.00 0.00 1 1015.3
20260904215633 71 63 4.0 9.0 0.00 0.00 0.00 1 1015.3
20260904214628 71 16 5.0 7.0 0.00 0.00 0.00 1 1015.5
20260904213624 71 34 5.0 7.0 0.00 0.00 0.00 1 1015.4
20260904212641 71 50 4.0 6.0 0.00 0.00 0.00 1 1015.4
20260904211620 70 82 3.0 5.0 0.00 0.00 0.00 1 1015.4
20260904210632 70 53 7.0 11.0 0.00 0.00 0.00 1 1015.2
20260904205636 70 49 5.0 8.0 0.00 0.00 0.00 1 1015.3
20260904204625 69 326 4.0 6.0 0.00 0.00 0.00 1 1015.4
20260904203620 70 20 6.0 9.0 0.00 0.00 0.00 1 1015.4
20260904202616 69 44 3.0 5.0 0.00 0.00 0.00 1 1015.3
20260904201633 69 8 6.0 7.0 0.00 0.00 0.00 1 1015.4
20260904200629 69 59 5.0 6.0 0.00 0.00 0.00 1 1015.5
20260904195645 68 95 4.0 5.0 0.00 0.00 0.00 1 1015.5
20260904194622 68 179 3.0 3.0 0.00 0.00 0.00 1 1015.6
20260904193638 67 360 2.0 5.0 0.00 0.00 0.00 1 1015.6
20260904192634 68 67 4.0 6.0 0.00 0.00 0.00 1 1015.7
20260904191630 67 38 4.0 5.0 0.00 0.00 0.00 1 1015.8
20260904190726 66 50 4.0 6.0 0.00 0.00 0.00 1 1015.8
20260904185622 65 24 3.0 5.0 0.00 0.00 0.00 1 1016.1
20260904184619 64 156 2.0 3.0 0.00 0.00 0.00 1 1016.1
20260904183635 64 185 4.0 5.0 0.00 0.00 0.00 1 1016.3
20260904182631 65 158 4.0 7.0 0.00 0.00 0.00 1 1016.1
20260904181647 65 190 4.0 4.0 0.00 0.00 0.00 1 1016.0
20260904180624 63 37 1.0 3.0 0.00 0.00 0.00 1 1015.8
20260904175620 62 314 2.0 3.0 0.00 0.00 0.00 1 1015.9
20260904174621 63 58 2.0 4.0 0.00 0.00 0.00 1 1015.8
20260904173633 62 68 2.0 3.0 0.00 0.00 0.00 1 1015.8
20260904172628 63 53 5.0 6.0 0.00 0.00 0.00 1 1015.6
20260904171625 62 331 1.0 3.0 0.00 0.00 0.00 1 1015.6